This demonstration page uses our WeatherBlox Daily Observations layout. Learn more.

Left ArrowRight Arrow

Hourly Observations for May 11, 2016

Temp ( °F °C ) Dew Point ( °F °C ) Humidity (%) Winds ( mph kmh ) Pressure ( in mb ) Visibility ( mi km ) Precip ( " mm )
12:11 am 00:11 Cloudy with Nearby Thunderstorms 62 16.7 60 15.6 93 93 NNE 13 20 29.91 1013 10 16 0.00 0.03
12:38 am 00:38 Cloudy 63 17 61 16 94 94 NE 12 19 29.88 1012 10 16 0.00 0.00
12:54 am 00:54 Cloudy 63 17.2 60 15.6 90 90 NE 13 20 29.88 1012 10 16 0.00 0.03
1:54 am 01:54 Cloudy 63 17.2 59 15 87 87 ENE 5 7 29.89 1012 10 16 0.00 0.00
2:54 am 02:54 Mostly Cloudy 64 17.8 58 14.4 81 81 NE 9 15 29.87 1012 10 16 0.00 0.00
3:54 am 03:54 Mostly Cloudy 63 17.2 58 14.4 84 84 NNW 9 15 29.84 1010 10 16 0.00 0.00
4:39 am 04:39 Cloudy 62 16.7 57 13.9 84 84 NW 23 37 29.88 1012 10 16 0.00 0.00
4:54 am 04:54 Cloudy 57 13.9 52 11.1 83 83 NNW 29 46 29.89 1012 10 16 0.00 0.00
5:17 am 05:17 Windy with Storms Likely 57 14 52 11 82 82 NNW 24 39 29.94 1014 10 16 0.00 0.00
5:44 am 05:44 Cloudy with Nearby Thunderstorms 55 13 52 11 88 88 NW 22 35 30.00 1016 5 8 0.00 0.00
5:54 am 05:54 Cloudy with Rain 54 12.2 51 10.6 90 90 NW 22 35 30.00 1016 4 6 0.05 1.27
6:06 am 06:06 Cloudy with Nearby Thunderstorms 54 12 52 11 94 94 NW 23 37 30.03 1017 3 5 0.00 0.00
6:10 am 06:10 Cloudy with Strong Thunderstorms 54 12 52 11 94 94 NNW 21 33 30.03 1017 3 4 0.00 0.00
6:22 am 06:22 Cloudy with Nearby Thunderstorms 54 12 52 11 94 94 NNW 20 31 30.03 1017 3 5 0.00 0.00
6:26 am 06:26 Cloudy with Strong Thunderstorms 54 12.2 52 11.1 93 93 N 17 28 30.03 1017 3 4 0.17 4.32
6:49 am 06:49 Windy with Storms Likely 54 12 52 11 94 94 N 28 44 29.94 1014 5 8 0.30 7.62
6:54 am 06:54 Windy with Storms Likely 54 12.2 51 10.6 90 90 N 22 35 29.93 1013 9 14 0.31 7.87
7:01 am 07:01 Cloudy with Light Rain 54 12.2 51 10.6 90 90 N 22 35 29.97 1015 10 16 0.00 0.03
7:54 am 07:54 Mostly Cloudy 55 12.8 52 11.1 90 90 N 16 26 29.95 1014 10 16 0.00 0.03
8:54 am 08:54 Cloudy 57 13.9 53 11.7 87 87 NE 13 20 29.98 1015 10 16 0.00 0.00
9:54 am 09:54 Cloudy 58 14.4 52 11.1 81 81 NE 16 26 29.99 1016 8 13 0.00 0.00
10:54 am 10:54 Cloudy 59 15 53 11.7 81 81 NNW 13 20 30.00 1016 10 16 0.00 0.00
11:54 am 11:54 Cloudy 60 15.6 53 11.7 78 78 NW 10 17 30.01 1016 10 16 0.00 0.00
12:54 pm 12:54 Mostly Sunny 66 18.9 56 13.3 70 70 N 12 19 29.99 1016 10 16 0.00 0.00
1:54 pm 13:54 Mostly Cloudy 69 20.6 55 12.8 61 61 NNW 14 22 29.98 1015 10 16 0.00 0.00
2:54 pm 14:54 Mostly Cloudy 70 21.1 53 11.7 55 55 NNW 17 28 29.98 1015 10 16 0.00 0.00
3:54 pm 15:54 Mostly Sunny 72 22.2 50 10 46 46 NNW 14 22 29.98 1015 10 16 0.00 0.00
4:54 pm 16:54 Mostly Sunny 73 22.8 48 8.9 41 41 WNW 21 33 29.98 1015 10 16 0.00 0.00
5:54 pm 17:54 Sunny 73 22.8 48 8.9 41 41 NNW 14 22 30.01 1016 10 16 0.00 0.00
6:54 pm 18:54 Sunny 72 22.2 47 8.3 41 41 NNW 10 17 30.02 1017 10 16 0.00 0.00
7:54 pm 19:54 Sunny 69 20.6 46 7.8 44 44 NW 7 11 30.02 1017 10 16 0.00 0.00
8:54 pm 20:54 Clear 65 18.3 45 7.2 49 49 NW 8 13 30.05 1018 10 16 0.00 0.00
9:54 pm 21:54 Clear 63 17.2 44 6.7 50 50 NNW 13 20 30.09 1019 10 16 0.00 0.00
10:54 pm 22:54 Clear 62 16.7 44 6.7 52 52 NNW 15 24 30.13 1020 10 16 0.00 0.00
11:54 pm 23:54 Clear 59 15 42 5.6 54 54 NNW 16 26 30.15 1021 10 16 0.00 0.00

Powered by AerisWeather